Texarkana, AR

6:36 AM CDT on March 27, 2017 (GMT -0500)
Texarkana Regional-Webb

Weather History for KTXK - December, 2012

Change the Weather History Date:

Tuesday, December 25, 2012

  Actual Average Record
Temperature  
Mean Temperature 41 °F 44 °F  
Max Temperature 50 °F 54 °F 78 °F (1922)
Min Temperature 32 °F 34 °F 4 °F (1983)
Degree Days  
Heating Degree Days 24 21  
Month to date heating degree days 273 480  
Since 1 July heating degree days 719 938  
Cooling Degree Days 0 0  
Month to date cooling degree days 17 0  
Year to date cooling degree days 2808 2204  
Moisture  
Dew Point 36 °F    
Average Humidity 83    
Maximum Humidity 100    
Minimum Humidity 66    
Precipitation  
Precipitation 2.56 in 0.15 in 4.56 in (1987)
Month to date precipitation 3.27 4.28  
Year to date precipitation 30.88 48.88  
Snow  
Snow 0.00 in - - ()
Month to date snowfall 0.0  
Since 1 July snowfall 0.0  
Snow Depth -    
Sea Level Pressure  
Sea Level Pressure 29.75 in    
Wind  
Wind Speed 13 mph (NNE)    
Max Wind Speed 24 mph    
Max Gust Speed 32 mph    
Visibility 4 miles    
Events Fog , Rain , Snow , Thunderstorm    
T = Trace of Precipitation, MM = Missing Value Source: NWS Daily Summary

Daily Weather History Graph

Daily Weather History Graph

Search for Another Location

Airport or City:

Trip Planner

Search our weather history database for the weather conditions in past years. The results will help you decide how hot, cold, wet, or windy it might be!

Date:

Astronomy

Dec. 25, 2012 Rise Set
Actual Time 7:18 AM CST 5:14 PM CST
Civil Twilight 6:50 AM CST 5:42 PM CST
Nautical Twilight 6:19 AM CST 6:13 PM CST
Astronomical Twilight 5:49 AM CST 6:43 PM CST
Moon 3:21 PM CST (12/25) 4:53 AM CST (12/25)
Length of Visible Light 10h 51m
Length of Day
9h 56m
Waxing Gibbous, 94% of the Moon is Illuminated
Dec 25
Waxing Gibbous
Dec 28
Full
Jan 4
Last Quarter
Jan 11
New
Jan 18
First Quarter

Hourly Weather History & Observations

Time (CST) Temp. Windchill Dew Point Humidity Pressure Visibility Wind Dir Wind Speed Gust Speed Precip Events Conditions
12:25 AM 48.2 °F - 42.8 °F 82% 29.86 in 10.0 mi ENE 4.6 mph - N/A   Mostly Cloudy
12:53 AM 48.9 °F - 42.1 °F 77% 29.85 in 10.0 mi ENE 5.8 mph - N/A   Mostly Cloudy
1:53 AM 50.0 °F - 39.9 °F 68% 29.85 in 10.0 mi ENE 8.1 mph - N/A   Overcast
2:53 AM 48.9 °F - 37.9 °F 66% 29.82 in 10.0 mi ENE 10.4 mph 19.6 mph N/A   Overcast
3:53 AM 48.9 °F - 39.0 °F 69% 29.78 in 10.0 mi ENE 12.7 mph 19.6 mph N/A   Overcast
4:53 AM 48.0 °F - 37.9 °F 68% 29.75 in 10.0 mi ENE 12.7 mph 20.7 mph N/A   Overcast
5:31 AM 44.6 °F 40.2 °F 42.8 °F 93% 29.78 in 2.5 mi East 8.1 mph 17.3 mph 0.06 in Rain , Thunderstorm Heavy Rain
5:53 AM 45.0 °F 37.9 °F 43.0 °F 93% 29.86 in 4.0 mi NNW 16.1 mph - 0.10 in Rain , Thunderstorm Thunderstorms and Rain
6:14 AM 44.6 °F 38.8 °F 42.8 °F 93% 29.82 in 4.0 mi North 11.5 mph 23.0 mph 0.07 in Rain , Thunderstorm Rain
6:22 AM 42.8 °F 35.4 °F 41.0 °F 93% 29.81 in 5.0 mi NNE 15.0 mph 21.9 mph 0.09 in Rain Light Rain
6:39 AM 42.8 °F 35.8 °F 41.0 °F 93% 29.81 in 2.5 mi NNE 13.8 mph 24.2 mph 0.21 in Rain Heavy Rain
6:53 AM 42.1 °F 33.6 °F 39.9 °F 92% 29.79 in 5.0 mi NE 18.4 mph 25.3 mph 0.22 in Rain Light Rain
7:17 AM 41.0 °F 32.5 °F 39.2 °F 93% 29.77 in 4.0 mi NE 17.3 mph 24.2 mph 0.03 in Rain , Thunderstorm Thunderstorms and Rain
7:39 AM 41.0 °F 33.1 °F 39.2 °F 93% 29.77 in 5.0 mi NE 15.0 mph 24.2 mph 0.05 in Rain Light Rain
7:53 AM 41.0 °F 33.5 °F 39.9 °F 96% 29.78 in 4.0 mi NE 13.8 mph 23.0 mph 0.07 in Rain , Thunderstorm Rain
8:01 AM 41.0 °F 33.5 °F 39.2 °F 93% 29.77 in 3.0 mi NNE 13.8 mph - 0.02 in Rain Rain
8:08 AM 41.0 °F 33.5 °F 39.2 °F 93% 29.77 in 2.5 mi NE 13.8 mph - 0.05 in Rain Heavy Rain
8:18 AM 41.0 °F 33.1 °F 39.2 °F 93% 29.76 in 2.0 mi NE 15.0 mph 23.0 mph 0.09 in Rain Heavy Rain
8:23 AM 41.0 °F 33.5 °F 39.2 °F 93% 29.76 in 1.8 mi ENE 13.8 mph 23.0 mph 0.12 in Rain Heavy Rain
8:28 AM 41.0 °F 33.5 °F 39.2 °F 93% 29.76 in 2.0 mi ENE 13.8 mph 21.9 mph 0.15 in Rain , Thunderstorm Heavy Rain
8:42 AM 41.0 °F 33.9 °F 39.2 °F 93% 29.77 in 2.0 mi ENE 12.7 mph 24.2 mph 0.22 in Rain , Thunderstorm Heavy Rain
8:49 AM 41.0 °F 33.5 °F 39.2 °F 93% 29.77 in 1.8 mi ENE 13.8 mph 20.7 mph 0.26 in Rain , Thunderstorm Heavy Rain
8:53 AM 41.0 °F 32.5 °F 39.9 °F 96% 29.76 in 2.0 mi NE 17.3 mph 20.7 mph 0.28 in Rain , Thunderstorm Heavy Rain
9:49 AM 39.2 °F 32.0 °F 39.2 °F 100% 29.75 in 2.0 mi ENE 11.5 mph 25.3 mph 0.27 in Rain Heavy Rain
9:53 AM 39.9 °F 30.5 °F 39.0 °F 97% 29.74 in 1.8 mi NE 19.6 mph 28.8 mph 0.30 in Rain Heavy Rain
10:11 AM 39.2 °F 31.6 °F 39.2 °F 100% 29.74 in 2.0 mi NE 12.7 mph 21.9 mph 0.13 in Rain Heavy Rain
10:24 AM 37.4 °F 26.9 °F 37.4 °F 100% 29.71 in 1.8 mi ENE 20.7 mph 29.9 mph 0.21 in Rain Heavy Rain
10:36 AM 37.4 °F 30.3 °F 37.4 °F 100% 29.70 in 1.8 mi ENE 10.4 mph 26.5 mph 0.30 in Rain , Thunderstorm Heavy Rain
10:49 AM 37.4 °F 29.8 °F 37.4 °F 100% 29.70 in 1.8 mi East 11.5 mph 26.5 mph 0.41 in Rain , Thunderstorm Heavy Rain
10:53 AM 37.0 °F 27.7 °F 36.0 °F 96% 29.69 in 1.8 mi ENE 16.1 mph 24.2 mph 0.45 in Rain , Thunderstorm Heavy Rain
11:09 AM 37.4 °F 28.9 °F 35.6 °F 93% 29.69 in 2.0 mi ENE 13.8 mph 27.6 mph 0.13 in Rain , Thunderstorm Heavy Rain
11:13 AM 37.4 °F 28.5 °F 35.6 °F 93% 29.69 in 1.8 mi ENE 15.0 mph 27.6 mph 0.17 in Rain Heavy Rain
11:19 AM 37.4 °F 29.8 °F 35.6 °F 93% 29.68 in 2.0 mi ENE 11.5 mph 24.2 mph 0.22 in Rain , Thunderstorm Heavy Rain
11:43 AM 37.4 °F 29.3 °F 35.6 °F 93% 29.67 in 2.0 mi ENE 12.7 mph 24.2 mph 0.39 in Rain Heavy Rain
12:03 PM 37.4 °F 29.3 °F 37.4 °F 100% 29.66 in 1.5 mi East 12.7 mph 23.0 mph 0.06 in Rain Heavy Rain
12:28 PM 37.4 °F 28.2 °F 35.6 °F 93% 29.64 in 1.8 mi East 16.1 mph 25.3 mph 0.23 in Rain , Thunderstorm Heavy Rain
12:43 PM 35.6 °F 25.2 °F 35.6 °F 100% 29.60 in 2.0 mi ENE 18.4 mph 27.6 mph 0.28 in Rain Rain
12:53 PM 36.0 °F 26.3 °F 35.1 °F 97% 29.59 in 5.0 mi ENE 16.1 mph 32.2 mph 0.28 in Rain Light Rain
1:15 PM 35.6 °F 24.2 °F 35.6 °F 100% 29.58 in 10.0 mi ENE 21.9 mph 29.9 mph 0.01 in   Overcast
1:53 PM 36.0 °F 25.6 °F 35.1 °F 97% 29.56 in 10.0 mi NE 18.4 mph 28.8 mph 0.01 in   Overcast
2:53 PM 36.0 °F 29.6 °F 34.0 °F 93% 29.62 in 6.0 mi NW 8.1 mph - 0.01 in Rain Light Rain
3:07 PM 35.6 °F 29.9 °F 33.8 °F 93% 29.64 in 1.8 mi North 6.9 mph - 0.04 in Rain Heavy Rain
3:16 PM 33.8 °F 27.7 °F 33.8 °F 100% 29.65 in 1.0 mi NW 6.9 mph 16.1 mph 0.10 in Rain Heavy Rain
3:28 PM 33.8 °F 29.6 °F 33.8 °F 100% 29.67 in 1.2 mi WNW 4.6 mph - 0.16 in Rain Heavy Rain
3:53 PM 32.0 °F 28.7 °F 32.0 °F 100% 29.68 in 0.8 mi WNW 3.5 mph - 0.25 in Snow Light Snow
4:08 PM 32.0 °F 28.7 °F 32.0 °F 100% 29.68 in 0.5 mi NW 3.5 mph - 0.04 in Fog , Snow Snow
4:44 PM 32.0 °F 24.8 °F 32.0 °F 100% 29.68 in 0.5 mi North 8.1 mph - 0.11 in Fog , Snow Snow
4:53 PM 32.0 °F 23.6 °F 32.0 °F 100% 29.69 in 0.5 mi NNW 10.4 mph - 0.12 in Fog , Snow Snow
5:38 PM 32.0 °F 21.2 °F 30.2 °F 93% 29.72 in 1.0 mi North 16.1 mph 23.0 mph 0.02 in Snow Light Snow
5:47 PM 32.0 °F 22.5 °F 32.0 °F 100% 29.73 in 1.5 mi North 12.7 mph 21.9 mph 0.03 in Snow Light Snow
5:53 PM 32.0 °F 23.6 °F 32.0 °F 100% 29.75 in 1.8 mi NNW 10.4 mph - 0.03 in Snow Light Snow
6:02 PM 32.0 °F 22.5 °F 30.2 °F 93% 29.75 in 2.0 mi North 12.7 mph 19.6 mph 0.00 in Snow Light Snow
6:11 PM 32.0 °F 23.0 °F 32.0 °F 100% 29.76 in 3.0 mi NNW 11.5 mph - 0.00 in Snow Light Snow
6:53 PM 32.0 °F 24.8 °F 32.0 °F 100% 29.79 in 4.0 mi NNW 8.1 mph - 0.00 in Snow Light Snow
7:53 PM 32.0 °F 23.6 °F 32.0 °F 100% 29.83 in 2.5 mi WNW 10.4 mph - 0.00 in Snow Light Snow
8:26 PM 32.0 °F 22.5 °F 32.0 °F 100% 29.84 in 4.0 mi NW 12.7 mph - 0.00 in Snow Light Snow
8:49 PM 32.0 °F 22.1 °F 30.2 °F 93% 29.85 in 1.8 mi NW 13.8 mph - 0.00 in Snow Light Snow
8:53 PM 32.0 °F 21.6 °F 32.0 °F 100% 29.86 in 1.5 mi NW 15.0 mph - 0.00 in Snow Light Snow
9:15 PM 32.0 °F 22.1 °F 30.2 °F 93% 29.86 in 2.5 mi NW 13.8 mph 23.0 mph 0.00 in Snow Light Snow
9:24 PM 32.0 °F 22.5 °F 32.0 °F 100% 29.87 in 4.0 mi NW 12.7 mph - 0.00 in Snow Light Snow
9:53 PM 32.0 °F 23.0 °F 32.0 °F 100% 29.88 in 4.0 mi WNW 11.5 mph - 0.00 in Snow Light Snow
10:53 PM 32.0 °F 22.5 °F 30.9 °F 96% 29.92 in 3.0 mi WNW 12.7 mph - 0.00 in Snow Light Snow
11:53 PM 32.0 °F 21.2 °F 30.9 °F 96% 29.94 in 7.0 mi West 16.1 mph 21.9 mph 0.00 in   Overcast